Location: Vancouver
(49.2827°N, 123.1207°W)
Time: 23:10:31
(UTC-07:00)

ISS - Pass Details

Date: 23 June 2024
Orbit: 410 x 424 km, 51.6° (Epoch: 12 July)

Event Time Altitude Azimuth Distance (km) Brightness Sun altitude
Exits shadow 04:02:04 - 176° (S) 1,850 -0.9 -8.3°
Reaches altitude 10° 04:03:50 10° 153° (SSE) 1,484 -1.2 -8.2°
Maximum altitude 04:04:52 11° 134° (SE) 1,420 -1.1 -8.1°
Drops below altitude 10° 04:05:54 10° 116° (ESE) 1,491 -0.8 -7.9°
Sets 04:09:17 0° 80° (E) 2,365 0.9 -7.6°
